WetterOnline ( https://www.wetteronline.de )

Wetter aktuell Aachen

Aktuelles Wetter: Aachen-Orsbach (231m)

6-stündlich | Neueste Meldungen
Ortszeit Temperatur Wetter
Di, 27.02. 7:00 3.8° C bedeckt
Di, 27.02. 1:00 4.3° C bedeckt
Mo, 26.02. 19:00 4.6° C bewölkt
Mo, 26.02. 13:00 5.4° C leichter Regen
Mo, 26.02. 7:00 4.6° C leichter Regen
Mo, 26.02. 1:00 5.1° C leichter Regen
So, 25.02. 19:00 6.0° C bewölkt
So, 25.02. 13:00 6.0° C bewölkt
Ortszeit Temperatur Wetter
Di, 27.02. 10:00 3.3° C bedeckt
Di, 27.02. 9:50 3.3° C Dunst
Di, 27.02. 9:40 3.3° C Dunst
Di, 27.02. 9:30 3.5° C bedeckt
Di, 27.02. 9:20 3.5° C Dunst
Di, 27.02. 9:10 3.5° C Dunst
Di, 27.02. 9:00 3.6° C bedeckt
Di, 27.02. 8:30 3.7° C bedeckt
Di, 27.02. 8:00 3.7° C bedeckt
Di, 27.02. 7:30 3.7° C bedeckt
Di, 27.02. 7:00 3.8° C bedeckt
Ortszeit Relative Feuchte Sichtweite
Di, 27.02. 7:00 95% 6 km
Di, 27.02. 1:00 96% 5.0 km
Mo, 26.02. 19:00 97% 3.4 km
Mo, 26.02. 13:00 97% 27 km
Mo, 26.02. 7:00 97% 19 km
Mo, 26.02. 1:00 84% 22 km
So, 25.02. 19:00 77% >70 km
So, 25.02. 13:00 81% 45 km
Ortszeit Relative Feuchte Sichtweite
Di, 27.02. 10:00 97% 3.1 km
Di, 27.02. 9:50 97% -
Di, 27.02. 9:40 97% -
Di, 27.02. 9:30 97% 3.3 km
Di, 27.02. 9:20 97% -
Di, 27.02. 9:10 97% -
Di, 27.02. 9:00 95% 4.2 km
Di, 27.02. 8:30 96% 4.7 km
Di, 27.02. 8:00 96% 4.6 km
Di, 27.02. 7:30 94% 5.0 km
Di, 27.02. 7:00 95% 6 km
Ortszeit Niederschlagsmenge Niederschlagsart
Di, 27.02. 7:00 0.1 l/m2 in 12 Std. -
Di, 27.02. 1:00 0.1 l/m2 in 6 Std. Regen
Mo, 26.02. 19:00 11 l/m2 in 12 Std. Regen
Mo, 26.02. 13:00 9 l/m2 in 6 Std. Regen
Mo, 26.02. 7:00 9 l/m2 in 12 Std. Regen
Mo, 26.02. 1:00 0.8 l/m2 in 6 Std. Regen
So, 25.02. 19:00 0.2 l/m2 in 12 Std. Regen
So, 25.02. 13:00 0.1 l/m2 in 6 Std. Regen
Ortszeit Niederschlagsmenge Niederschlagsart
Di, 27.02. 10:00 0.0 l/m2 in 1 Std. -
Di, 27.02. 9:50 keine Meldung -
Di, 27.02. 9:40 keine Meldung -
Di, 27.02. 9:30 0.0 l/m2 in 30 Min -
Di, 27.02. 9:20 keine Meldung -
Di, 27.02. 9:10 keine Meldung -
Di, 27.02. 9:00 0.0 l/m2 in 1 Std. -
Di, 27.02. 8:30 0.0 l/m2 in 30 Min -
Di, 27.02. 8:00 0.0 l/m2 in 1 Std. -
Di, 27.02. 7:30 0.0 l/m2 in 30 Min -
Di, 27.02. 7:00 0.0 l/m2 in 1 Std. -
Ortszeit Stärke Spitze Richtung
km/h Bft. km/h Grad Sektor
Di, 27.02. 7:00 14 3 25 40° NO
Di, 27.02. 1:00 17 3 31 30° NO
Mo, 26.02. 19:00 19 3 35 40° NO
Mo, 26.02. 13:00 22 4 40 60° NO
Mo, 26.02. 7:00 28 4 39 80° O
Mo, 26.02. 1:00 22 4 36 80° O
So, 25.02. 19:00 11 2 32 90° O
So, 25.02. 13:00 20 4 39 200° S
Ortszeit Stärke Spitze Richtung
km/h Bft. km/h Grad Sektor
Di, 27.02. 10:00 9 2 19 30° NO
Di, 27.02. 9:50 9 2 - 30° NO
Di, 27.02. 9:40 13 3 - 20° N
Di, 27.02. 9:30 11 2 19 30° NO
Di, 27.02. 9:20 11 2 - 30° NO
Di, 27.02. 9:10 11 2 - 10° N
Di, 27.02. 9:00 9 2 19 20° N
Di, 27.02. 8:30 11 2 18 20° N
Di, 27.02. 8:00 13 3 20 20° N
Di, 27.02. 7:30 13 3 20 20° N
Di, 27.02. 7:00 14 3 22 40° NO
Ortszeit Untergrenze Bedeckung Gattung
total tief tief mittel hoch
Di, 27.02. 7:00 180 m 8/8 8/8 - - -
Di, 27.02. 1:00 150 m 8/8 8/8 - - -
Mo, 26.02. 19:00 150 m 7/8 7/8 - - -
Mo, 26.02. 13:00 150 m 8/8 8/8 - - -
Mo, 26.02. 7:00 180 m 7/8 7/8 - - -
Mo, 26.02. 1:00 1080 m 8/8 8/8 - - -
So, 25.02. 19:00 3000 m 8/8 7/8 - - -
So, 25.02. 13:00 750 m 7/8 7/8 - - -
Ortszeit Bedeckungsgrad in Achtel und Wolkenuntergrenze
Di, 27.02. 10:00 8(90m)
Di, 27.02. 9:50 8(90m)
Di, 27.02. 9:40 8
Di, 27.02. 9:30 8(90m)
Di, 27.02. 9:20 8(90m)
Di, 27.02. 9:10 8
Di, 27.02. 9:00 8(120m)
Di, 27.02. 8:30 8(150m)
Di, 27.02. 8:00 8(150m)
Di, 27.02. 7:30 8(150m)
Di, 27.02. 7:00 8(180m)
Ortszeit Luftdruck NN (hPa) Tendenz (hPa in 3 Std.)
Di, 27.02. 7:00 1016 + 1,3
Di, 27.02. 1:00 1013 + 2,2
Mo, 26.02. 19:00 1008 + 3,3
Mo, 26.02. 13:00 1002 + 2,1
Mo, 26.02. 7:00 997 + 0,5
Mo, 26.02. 1:00 997 - 0,4
So, 25.02. 19:00 999 - 1,0
So, 25.02. 13:00 1002 - 0,3
Ortszeit Luftdruck NN (hPa) Tendenz (hPa in 3 Std.)
Di, 27.02. 10:00 1018 + 1,7
Di, 27.02. 9:50 1018 keine Meldung
Di, 27.02. 9:40 1018 keine Meldung
Di, 27.02. 9:30 1018 + 2,0
Di, 27.02. 9:20 1018 keine Meldung
Di, 27.02. 9:10 1017 keine Meldung
Di, 27.02. 9:00 1017 + 2,0
Di, 27.02. 8:30 1017 + 1,9
Di, 27.02. 8:00 1017 + 1,8
Di, 27.02. 7:30 1016 + 1,6
Di, 27.02. 7:00 1016 + 1,3
Ortszeit Schneehöhe (cm)
Di, 27.02. 7:00 0
Di, 27.02. 1:00 0
Mo, 26.02. 19:00 0
Mo, 26.02. 13:00 0
Mo, 26.02. 7:00 0
Mo, 26.02. 1:00 0
So, 25.02. 19:00 0
So, 25.02. 13:00 0
Ortszeit Schneehöhe (cm)
Di, 27.02. 10:00 0
Di, 27.02. 9:50 0
Di, 27.02. 9:40 -
Di, 27.02. 9:30 0
Di, 27.02. 9:20 0
Di, 27.02. 9:10 -
Di, 27.02. 9:00 0
Di, 27.02. 8:30 0
Di, 27.02. 8:00 0
Di, 27.02. 7:30 0
Di, 27.02. 7:00 0
Link zu dieser Seite / Seite empfehlen

Das Wetter in ...